Location: D�derode
(51.8092°N, 10.1065°E)
Time: 20:58:52
(UTC+00:00)

Meteor 1-25 Rocket - Pass Details

Date: 01 December 2020
Orbit: 838 x 890 km, 81.2° (Epoch: 25 January)

Event Time Altitude Azimuth Distance (km) Brightness Sun altitude
Rises 16:29:17 0° 347° (NNW) 3,423 7.3 -11.3°
Reaches altitude 10° 16:31:42 10° 348° (NNW) 2,490 6.6 -11.6°
Maximum altitude 16:37:22 87° 77° (ENE) 868 4.2 -12.4°
Drops below altitude 10° 16:43:05 10° 168° (SSE) 2,508 6.7 -13.3°
Sets 16:45:31 0° 168° (SSE) 3,449 7.5 -13.6°
